Time,TemperatureF,DewpointF,PressureIn,WindDirection,WindDirectionDegrees,WindSpeedMPH,WindSpeedGustMPH,Humidity,HourlyPrecipIn,Conditions,Clouds,dailyrainin,SoftwareType,DateUTC
2013-07-30 00:03:00,85.6,58.5,29.85,SSE,159,0.0,10.0,40,0.00,,,0.00,meteohub,2013-07-30 05:03:00,
2013-07-30 00:08:00,85.5,58.5,29.86,South,190,0.0,10.0,40,0.00,,,0.00,meteohub,2013-07-30 05:08:00,
2013-07-30 00:13:00,85.5,58.5,29.86,SSE,165,0.0,10.0,40,0.00,,,0.00,meteohub,2013-07-30 05:13:00,
2013-07-30 00:18:00,85.3,59.0,29.86,South,175,2.0,7.0,41,0.00,,,0.00,meteohub,2013-07-30 05:18:00,
2013-07-30 00:23:00,85.3,59.0,29.87,SE,146,4.0,7.0,41,0.00,,,0.00,meteohub,2013-07-30 05:23:00,
2013-07-30 00:28:00,84.9,58.6,29.87,WSW,245,3.0,7.0,41,0.00,,,0.00,meteohub,2013-07-30 05:28:00,
2013-07-30 00:33:00,84.7,59.2,29.88,WNW,284,1.0,7.0,42,0.00,,,0.00,meteohub,2013-07-30 05:33:00,
2013-07-30 00:38:00,84.6,59.0,29.88,South,180,0.0,9.0,42,0.00,,,0.00,meteohub,2013-07-30 05:38:00,
2013-07-30 00:43:00,84.6,59.0,29.88,West,263,2.0,9.0,42,0.00,,,0.00,meteohub,2013-07-30 05:43:00,
2013-07-30 00:48:00,84.6,59.5,29.89,West,263,0.0,9.0,43,0.00,,,0.00,meteohub,2013-07-30 05:48:00,
2013-07-30 00:53:00,84.4,59.4,29.89,West,263,0.0,9.0,43,0.00,,,0.00,meteohub,2013-07-30 05:53:00,
2013-07-30 00:58:00,84.4,59.4,29.90,West,263,0.0,9.0,43,0.00,,,0.00,meteohub,2013-07-30 05:58:00,
2013-07-30 01:03:00,84.2,59.9,29.90,West,263,0.0,3.0,44,0.00,,,0.00,meteohub,2013-07-30 06:03:00,
2013-07-30 01:08:00,84.0,59.7,29.90,West,263,0.0,3.0,44,0.00,,,0.00,meteohub,2013-07-30 06:08:00,
2013-07-30 01:13:00,83.8,59.5,29.89,West,263,0.0,3.0,44,0.00,,,0.00,meteohub,2013-07-30 06:13:00,
2013-07-30 01:18:00,83.5,59.4,29.89,West,263,0.0,0.0,44,0.00,,,0.00,meteohub,2013-07-30 06:18:00,
2013-07-30 01:23:00,83.1,59.5,29.89,West,263,0.0,0.0,45,0.00,,,0.00,meteohub,2013-07-30 06:23:00,
2013-07-30 01:28:00,82.9,59.4,29.89,WSW,257,0.0,0.0,45,0.00,,,0.00,meteohub,2013-07-30 06:28:00,
2013-07-30 01:33:00,82.8,59.2,29.89,WSW,254,0.0,0.0,45,0.00,,,0.00,meteohub,2013-07-30 06:33:00,
2013-07-30 01:38:00,82.6,59.7,29.89,South,189,0.0,0.0,46,0.00,,,0.00,meteohub,2013-07-30 06:38:00,
2013-07-30 01:43:00,82.4,59.5,29.88,South,177,0.0,4.0,46,0.00,,,0.00,meteohub,2013-07-30 06:43:00,
2013-07-30 01:48:00,82.2,59.9,29.89,South,184,0.0,4.0,47,0.00,,,0.00,meteohub,2013-07-30 06:48:00,
2013-07-30 01:53:00,82.2,60.6,29.89,South,173,0.0,4.0,48,0.00,,,0.00,meteohub,2013-07-30 06:53:00,
2013-07-30 01:58:00,82.0,60.4,29.89,South,172,0.0,6.0,48,0.00,,,0.00,meteohub,2013-07-30 06:58:00,
2013-07-30 02:03:00,81.9,60.8,29.89,South,171,0.0,6.0,49,0.00,,,0.00,meteohub,2013-07-30 07:03:00,
2013-07-30 02:08:00,81.9,60.8,29.89,South,190,0.0,6.0,49,0.00,,,0.00,meteohub,2013-07-30 07:08:00,
2013-07-30 02:13:00,81.7,61.2,29.88,SSW,206,0.0,6.0,50,0.00,,,0.00,meteohub,2013-07-30 07:13:00,
2013-07-30 02:18:00,81.7,61.2,29.89,SSW,206,0.0,0.0,50,0.00,,,0.00,meteohub,2013-07-30 07:18:00,
2013-07-30 02:25:00,81.7,61.2,29.88,SSW,206,0.0,0.0,50,0.00,,,0.00,meteohub,2013-07-30 07:25:00,
2013-07-30 02:30:00,81.7,61.9,29.88,SSW,206,0.0,0.0,51,0.00,,,0.00,meteohub,2013-07-30 07:30:00,
2013-07-30 02:35:00,81.5,61.7,29.88,SSW,195,0.0,0.0,51,0.00,,,0.00,meteohub,2013-07-30 07:35:00,
2013-07-30 02:40:00,81.5,61.7,29.88,SSW,195,0.0,4.0,51,0.00,,,0.00,meteohub,2013-07-30 07:40:00,
2013-07-30 02:45:00,81.5,61.7,29.88,SSW,211,0.0,4.0,51,0.00,,,0.00,meteohub,2013-07-30 07:45:00,
2013-07-30 02:50:00,81.3,61.5,29.88,SSW,211,0.0,4.0,51,0.00,,,0.00,meteohub,2013-07-30 07:50:00,
2013-07-30 02:55:00,81.3,61.5,29.88,SSW,210,0.0,4.0,51,0.00,,,0.00,meteohub,2013-07-30 07:55:00,
2013-07-30 03:00:00,81.1,61.9,29.88,SSW,196,0.0,2.0,52,0.00,,,0.00,meteohub,2013-07-30 08:00:00,
2013-07-30 03:05:00,81.1,62.4,29.88,SSW,194,0.0,2.0,53,0.00,,,0.00,meteohub,2013-07-30 08:05:00,
2013-07-30 03:10:00,81.1,62.4,29.89,SSW,194,0.0,2.0,53,0.00,,,0.00,meteohub,2013-07-30 08:10:00,
2013-07-30 03:15:00,81.0,62.2,29.89,SSW,194,0.0,3.0,53,0.00,,,0.00,meteohub,2013-07-30 08:15:00,
2013-07-30 03:20:00,81.0,62.8,29.89,SSW,194,0.0,3.0,54,0.00,,,0.00,meteohub,2013-07-30 08:20:00,
2013-07-30 03:25:00,80.8,62.6,29.89,South,180,0.0,3.0,54,0.00,,,0.00,meteohub,2013-07-30 08:25:00,
2013-07-30 03:30:00,80.8,63.7,29.89,SSE,150,0.0,5.0,56,0.00,,,0.00,meteohub,2013-07-30 08:30:00,
2013-07-30 03:35:00,80.6,64.0,29.89,SSE,152,0.0,5.0,57,0.00,,,0.00,meteohub,2013-07-30 08:35:00,
2013-07-30 03:40:00,80.4,64.2,29.89,SSE,150,0.0,7.0,58,0.00,,,0.00,meteohub,2013-07-30 08:40:00,
2013-07-30 03:45:00,80.4,64.8,29.89,SSE,154,0.0,7.0,59,0.00,,,0.00,meteohub,2013-07-30 08:45:00,
2013-07-30 03:50:00,80.4,64.8,29.89,SSE,152,0.0,7.0,59,0.00,,,0.00,meteohub,2013-07-30 08:50:00,
2013-07-30 03:55:00,80.4,65.3,29.90,SE,136,0.0,7.0,60,0.00,,,0.00,meteohub,2013-07-30 08:55:00,
2013-07-30 04:00:00,80.2,65.5,29.89,SE,135,0.0,7.0,61,0.00,,,0.00,meteohub,2013-07-30 09:00:00,
2013-07-30 04:05:00,80.2,66.0,29.90,SE,146,0.0,7.0,62,0.00,,,0.00,meteohub,2013-07-30 09:05:00,
2013-07-30 04:10:00,80.2,66.6,29.89,SSE,161,0.0,7.0,63,0.00,,,0.00,meteohub,2013-07-30 09:10:00,
2013-07-30 04:15:00,80.1,66.7,29.90,SE,142,0.0,10.0,64,0.00,,,0.00,meteohub,2013-07-30 09:15:00,
2013-07-30 04:20:00,80.1,67.3,29.90,SSE,147,0.0,10.0,65,0.00,,,0.00,meteohub,2013-07-30 09:20:00,
2013-07-30 04:25:00,80.1,67.6,29.90,SE,146,0.0,10.0,66,0.00,,,0.00,meteohub,2013-07-30 09:25:00,
2013-07-30 04:30:00,80.1,68.2,29.90,SSE,151,0.0,8.0,67,0.00,,,0.00,meteohub,2013-07-30 09:30:00,
2013-07-30 04:35:00,79.9,68.0,29.90,SSE,151,0.0,8.0,67,0.00,,,0.00,meteohub,2013-07-30 09:35:00,
2013-07-30 04:40:00,79.9,68.4,29.90,SSE,151,0.0,8.0,68,0.00,,,0.00,meteohub,2013-07-30 09:40:00,
2013-07-30 04:45:00,79.9,68.4,29.90,SSE,151,0.0,8.0,68,0.00,,,0.00,meteohub,2013-07-30 09:45:00,
2013-07-30 04:50:00,79.7,68.5,29.90,SSE,147,0.0,8.0,69,0.00,,,0.00,meteohub,2013-07-30 09:50:00,
2013-07-30 04:55:00,79.7,69.1,29.90,SSE,151,6.0,8.0,70,0.00,,,0.00,meteohub,2013-07-30 09:55:00,
2013-07-30 05:00:00,79.7,69.1,29.91,SSE,167,0.0,8.0,70,0.00,,,0.00,meteohub,2013-07-30 10:00:00,
2013-07-30 05:05:00,79.7,69.4,29.90,SSE,168,0.0,7.0,71,0.00,,,0.00,meteohub,2013-07-30 10:05:00,
2013-07-30 05:10:00,79.5,69.3,29.90,SSE,166,0.0,7.0,71,0.00,,,0.00,meteohub,2013-07-30 10:10:00,
2013-07-30 05:15:00,79.5,69.6,29.90,SSW,194,0.0,7.0,72,0.00,,,0.00,meteohub,2013-07-30 10:15:00,
2013-07-30 05:20:00,79.7,69.8,29.91,South,188,0.0,7.0,72,0.00,,,0.00,meteohub,2013-07-30 10:20:00,
2013-07-30 05:25:00,79.7,69.8,29.91,SSE,148,0.0,7.0,72,0.00,,,0.00,meteohub,2013-07-30 10:25:00,
2013-07-30 05:30:00,79.7,69.8,29.90,South,174,0.0,8.0,72,0.00,,,0.00,meteohub,2013-07-30 10:30:00,
2013-07-30 05:35:00,79.7,69.8,29.90,SSE,162,0.0,8.0,72,0.00,,,0.00,meteohub,2013-07-30 10:35:00,
2013-07-30 05:40:00,79.7,69.8,29.91,SSE,162,5.0,8.0,72,0.00,,,0.00,meteohub,2013-07-30 10:40:00,
2013-07-30 05:45:00,79.5,69.6,29.91,SE,143,4.0,8.0,72,0.00,,,0.00,meteohub,2013-07-30 10:45:00,
2013-07-30 05:50:00,79.5,70.2,29.91,SSE,151,0.0,8.0,73,0.00,,,0.00,meteohub,2013-07-30 10:50:00,
2013-07-30 05:55:00,79.5,70.2,29.91,SSE,167,0.0,7.0,73,0.00,,,0.00,meteohub,2013-07-30 10:55:00,
2013-07-30 06:00:00,79.3,70.0,29.91,SSE,153,0.0,7.0,73,0.00,,,0.00,meteohub,2013-07-30 11:00:00,
2013-07-30 06:06:00,79.3,70.0,29.91,SSE,151,0.0,7.0,73,0.00,,,0.00,meteohub,2013-07-30 11:06:00,
2013-07-30 06:11:00,79.3,70.0,29.91,SSE,150,0.0,7.0,73,0.00,,,0.00,meteohub,2013-07-30 11:11:00,
2013-07-30 06:16:00,79.2,69.8,29.91,SE,128,0.0,7.0,73,0.00,,,0.00,meteohub,2013-07-30 11:16:00,
2013-07-30 06:21:00,79.0,69.6,29.91,SE,133,0.0,7.0,73,0.00,,,0.00,meteohub,2013-07-30 11:21:00,
2013-07-30 06:26:00,79.0,70.0,29.92,SE,130,0.0,7.0,74,0.00,,,0.00,meteohub,2013-07-30 11:26:00,
2013-07-30 06:31:00,78.8,69.8,29.92,SE,125,0.0,7.0,74,0.00,,,0.00,meteohub,2013-07-30 11:31:00,
2013-07-30 06:36:00,78.6,69.6,29.92,SSE,154,0.0,7.0,74,0.00,,,0.00,meteohub,2013-07-30 11:36:00,
2013-07-30 06:41:00,78.6,69.6,29.92,SSE,155,0.0,7.0,74,0.00,,,0.00,meteohub,2013-07-30 11:41:00,
2013-07-30 06:46:00,78.6,69.6,29.92,SE,137,0.0,7.0,74,0.00,,,0.00,meteohub,2013-07-30 11:46:00,
2013-07-30 06:51:00,78.4,69.4,29.92,South,170,0.0,7.0,74,0.00,,,0.00,meteohub,2013-07-30 11:51:00,
2013-07-30 06:56:00,78.4,69.8,29.92,SE,143,0.0,8.0,75,0.00,,,0.00,meteohub,2013-07-30 11:56:00,
2013-07-30 07:01:00,78.3,69.6,29.92,SE,143,0.0,8.0,75,0.00,,,0.00,meteohub,2013-07-30 12:01:00,
2013-07-30 07:06:00,78.3,69.6,29.92,SSE,155,2.0,8.0,75,0.00,,,0.00,meteohub,2013-07-30 12:06:00,
2013-07-30 07:11:00,78.1,69.4,29.93,SSW,202,0.0,8.0,75,0.00,,,0.00,meteohub,2013-07-30 12:11:00,
2013-07-30 07:16:00,78.1,70.0,29.93,SE,144,0.0,8.0,76,0.00,,,0.00,meteohub,2013-07-30 12:16:00,
2013-07-30 07:21:00,78.1,70.0,29.93,SE,144,1.0,10.0,76,0.00,,,0.00,meteohub,2013-07-30 12:21:00,
2013-07-30 07:26:00,78.1,70.0,29.93,SE,144,0.0,10.0,76,0.00,,,0.00,meteohub,2013-07-30 12:26:00,
2013-07-30 07:31:00,78.1,70.0,29.93,SE,144,0.0,10.0,76,0.00,,,0.00,meteohub,2013-07-30 12:31:00,
2013-07-30 07:37:00,78.1,70.0,29.94,SE,144,0.0,10.0,76,0.00,,,0.00,meteohub,2013-07-30 12:37:00,
2013-07-30 07:42:00,78.1,70.0,29.94,SE,144,0.0,10.0,76,0.00,,,0.00,meteohub,2013-07-30 12:42:00,
2013-07-30 07:47:00,78.1,70.0,29.94,SSE,158,0.0,0.0,76,0.00,,,0.00,meteohub,2013-07-30 12:47:00,
2013-07-30 07:52:00,78.1,70.0,29.94,SSE,165,0.0,0.0,76,0.00,,,0.00,meteohub,2013-07-30 12:52:00,
2013-07-30 07:57:00,78.1,70.0,29.94,South,187,0.0,0.0,76,0.00,,,0.00,meteohub,2013-07-30 12:57:00,
2013-07-30 08:02:00,78.3,70.0,29.94,South,186,4.0,0.0,76,0.00,,,0.00,meteohub,2013-07-30 13:02:00,
2013-07-30 08:07:00,78.3,70.0,29.94,SE,145,0.0,0.0,76,0.00,,,0.00,meteohub,2013-07-30 13:07:00,
2013-07-30 08:12:00,78.3,70.0,29.94,SSE,150,0.0,10.0,76,0.00,,,0.00,meteohub,2013-07-30 13:12:00,
2013-07-30 08:17:00,78.3,70.0,29.94,South,174,0.0,10.0,76,0.00,,,0.00,meteohub,2013-07-30 13:17:00,
2013-07-30 08:22:00,78.4,70.2,29.94,SSE,165,0.0,10.0,76,0.00,,,0.00,meteohub,2013-07-30 13:22:00,
2013-07-30 08:27:00,78.6,70.3,29.94,South,169,0.0,10.0,76,0.00,,,0.00,meteohub,2013-07-30 13:27:00,
2013-07-30 08:32:00,78.6,70.0,29.94,SSE,154,0.0,10.0,75,0.00,,,0.00,meteohub,2013-07-30 13:32:00,
2013-07-30 08:37:00,78.8,70.2,29.95,South,171,0.0,8.0,75,0.00,,,0.00,meteohub,2013-07-30 13:37:00,
2013-07-30 08:42:00,78.8,70.2,29.95,SSW,192,0.0,8.0,75,0.00,,,0.00,meteohub,2013-07-30 13:42:00,
2013-07-30 08:47:00,79.0,70.3,29.95,SSW,202,0.0,8.0,75,0.00,,,0.00,meteohub,2013-07-30 13:47:00,
2013-07-30 08:52:00,79.3,70.3,29.95,SSW,193,4.0,8.0,74,0.00,,,0.00,meteohub,2013-07-30 13:52:00,
2013-07-30 08:57:00,79.7,70.7,29.95,South,188,0.0,8.0,74,0.00,,,0.00,meteohub,2013-07-30 13:57:00,
2013-07-30 09:02:00,80.2,70.9,29.96,South,186,0.0,12.0,73,0.00,,,0.00,meteohub,2013-07-30 14:02:00,
2013-07-30 09:07:00,80.8,70.9,29.96,South,188,4.0,12.0,72,0.00,,,0.00,meteohub,2013-07-30 14:07:00,
2013-07-30 09:13:00,81.0,70.7,29.96,SSW,199,6.0,12.0,71,0.00,,,0.00,meteohub,2013-07-30 14:13:00,
2013-07-30 09:18:00,81.0,70.7,29.96,South,191,0.0,12.0,71,0.00,,,0.00,meteohub,2013-07-30 14:18:00,
2013-07-30 09:23:00,80.8,70.5,29.96,South,169,0.0,13.0,71,0.00,,,0.00,meteohub,2013-07-30 14:23:00,
2013-07-30 09:28:00,80.8,70.9,29.96,SE,146,0.0,13.0,72,0.00,,,0.00,meteohub,2013-07-30 14:28:00,
2013-07-30 09:33:00,80.8,70.9,29.96,SSW,196,0.0,13.0,72,0.00,,,0.00,meteohub,2013-07-30 14:33:00,
2013-07-30 09:38:00,81.0,70.7,29.96,South,184,0.0,13.0,71,0.00,,,0.00,meteohub,2013-07-30 14:38:00,
2013-07-30 09:43:00,81.0,70.7,29.97,SSW,196,3.0,13.0,71,0.00,,,0.00,meteohub,2013-07-30 14:43:00,
2013-07-30 09:48:00,81.3,71.1,29.96,WSW,238,6.0,8.0,71,0.00,,,0.00,meteohub,2013-07-30 14:48:00,
2013-07-30 09:53:00,81.7,70.9,29.96,SW,229,6.0,8.0,70,0.00,,,0.00,meteohub,2013-07-30 14:53:00,
2013-07-30 09:58:00,81.9,71.1,29.96,South,183,5.0,8.0,70,0.00,,,0.00,meteohub,2013-07-30 14:58:00,
2013-07-30 10:03:00,81.9,70.7,29.96,WSW,241,1.0,8.0,69,0.00,,,0.00,meteohub,2013-07-30 15:03:00,
2013-07-30 10:08:00,81.9,71.1,29.96,SSW,198,0.0,8.0,70,0.00,,,0.00,meteohub,2013-07-30 15:08:00,
2013-07-30 10:13:00,82.2,71.1,29.96,South,173,4.0,9.0,69,0.00,,,0.00,meteohub,2013-07-30 15:13:00,
2013-07-30 10:18:00,82.6,70.9,29.97,SW,229,0.0,9.0,68,0.00,,,0.00,meteohub,2013-07-30 15:18:00,
2013-07-30 10:23:00,82.8,71.1,29.97,WSW,248,8.0,9.0,68,0.00,,,0.00,meteohub,2013-07-30 15:23:00,
2013-07-30 10:28:00,82.8,71.1,29.97,SW,225,0.0,9.0,68,0.00,,,0.00,meteohub,2013-07-30 15:28:00,
2013-07-30 10:33:00,82.8,70.7,29.96,SSW,194,0.0,9.0,67,0.00,,,0.00,meteohub,2013-07-30 15:33:00,
2013-07-30 10:38:00,82.9,70.9,29.96,South,171,0.0,10.0,67,0.00,,,0.00,meteohub,2013-07-30 15:38:00,
2013-07-30 10:43:00,83.1,71.1,29.96,South,173,0.0,10.0,67,0.00,,,0.00,meteohub,2013-07-30 15:43:00,
2013-07-30 10:48:00,83.8,71.2,29.96,South,182,7.0,10.0,66,0.00,,,0.00,meteohub,2013-07-30 15:48:00,
2013-07-30 10:53:00,84.4,71.2,29.96,SSE,157,1.0,10.0,65,0.00,,,0.00,meteohub,2013-07-30 15:53:00,
2013-07-30 10:58:00,84.9,70.9,29.95,SSW,213,0.0,12.0,63,0.00,,,0.00,meteohub,2013-07-30 15:58:00,
2013-07-30 11:03:00,85.6,70.7,29.95,South,183,4.0,12.0,61,0.00,,,0.00,meteohub,2013-07-30 16:03:00,
2013-07-30 11:08:00,85.6,70.7,29.96,SSW,208,0.0,12.0,61,0.00,,,0.00,meteohub,2013-07-30 16:08:00,
2013-07-30 11:13:00,85.6,71.1,29.96,SSW,192,5.0,12.0,62,0.00,,,0.00,meteohub,2013-07-30 16:13:00,
2013-07-30 11:18:00,85.8,70.9,29.95,South,189,2.0,12.0,61,0.00,,,0.00,meteohub,2013-07-30 16:18:00,
2013-07-30 11:23:00,86.5,71.4,29.95,SSW,196,8.0,12.0,61,0.00,,,0.00,meteohub,2013-07-30 16:23:00,
2013-07-30 11:28:00,87.3,71.2,29.95,SSW,206,5.0,12.0,59,0.00,,,0.00,meteohub,2013-07-30 16:28:00,
2013-07-30 11:33:00,87.8,71.2,29.95,South,190,3.0,12.0,58,0.00,,,0.00,meteohub,2013-07-30 16:33:00,
2013-07-30 11:38:00,88.3,71.2,29.95,SSW,209,0.0,12.0,57,0.00,,,0.00,meteohub,2013-07-30 16:38:00,
2013-07-30 11:43:00,89.1,71.2,29.95,South,185,1.0,12.0,56,0.00,,,0.00,meteohub,2013-07-30 16:43:00,
2013-07-30 11:48:00,89.4,71.1,29.95,South,185,7.0,12.0,55,0.00,,,0.00,meteohub,2013-07-30 16:48:00,
2013-07-30 11:53:00,89.8,70.3,29.95,SSE,167,13.0,13.0,53,0.00,,,0.00,meteohub,2013-07-30 16:53:00,
2013-07-30 11:58:00,89.8,70.3,29.94,South,176,6.0,11.0,53,0.00,,,0.00,meteohub,2013-07-30 16:58:00,
2013-07-30 12:03:00,89.4,70.5,29.94,South,183,5.0,11.0,54,0.00,,,0.00,meteohub,2013-07-30 17:03:00,
2013-07-30 12:08:00,90.0,70.5,29.94,SW,234,5.0,11.0,53,0.00,,,0.00,meteohub,2013-07-30 17:08:00,
2013-07-30 12:13:00,90.1,70.2,29.94,SW,215,2.0,11.0,52,0.00,,,0.00,meteohub,2013-07-30 17:13:00,
2013-07-30 12:18:00,90.7,70.0,29.94,ESE,119,7.0,14.0,51,0.00,,,0.00,meteohub,2013-07-30 17:18:00,
2013-07-30 12:24:00,91.0,69.8,29.94,WSW,241,3.0,14.0,50,0.00,,,0.00,meteohub,2013-07-30 17:24:00,
2013-07-30 12:29:00,91.0,69.3,29.94,SW,230,12.0,14.0,49,0.00,,,0.00,meteohub,2013-07-30 17:29:00,
2013-07-30 12:34:00,90.9,69.6,29.94,SSW,206,2.0,14.0,50,0.00,,,0.00,meteohub,2013-07-30 17:34:00,
2013-07-30 12:39:00,91.2,70.0,29.94,South,174,0.0,14.0,50,0.00,,,0.00,meteohub,2013-07-30 17:39:00,
2013-07-30 12:44:00,91.8,69.8,29.94,South,188,4.0,14.0,49,0.00,,,0.00,meteohub,2013-07-30 17:44:00,
2013-07-30 12:49:00,91.9,68.9,29.94,SSW,201,4.0,15.0,47,0.00,,,0.00,meteohub,2013-07-30 17:49:00,
2013-07-30 12:54:00,91.9,69.4,29.93,SW,230,7.0,15.0,48,0.00,,,0.00,meteohub,2013-07-30 17:54:00,
2013-07-30 12:59:00,91.9,69.4,29.93,SW,219,2.0,15.0,48,0.00,,,0.00,meteohub,2013-07-30 17:59:00,
2013-07-30 13:04:00,91.9,70.0,29.93,SW,219,2.0,15.0,49,0.00,,,0.00,meteohub,2013-07-30 18:04:00,
2013-07-30 13:09:00,92.5,69.3,29.93,SSW,193,3.0,15.0,47,0.00,,,0.00,meteohub,2013-07-30 18:09:00,
2013-07-30 13:14:00,93.0,69.8,29.93,SE,146,1.0,15.0,47,0.00,,,0.00,meteohub,2013-07-30 18:14:00,
2013-07-30 13:19:00,93.6,69.6,29.93,SSW,212,0.0,14.0,46,0.00,,,0.00,meteohub,2013-07-30 18:19:00,
2013-07-30 13:24:00,93.6,69.6,29.92,SSE,158,7.0,14.0,46,0.00,,,0.00,meteohub,2013-07-30 18:24:00,
2013-07-30 13:29:00,93.7,69.8,29.92,South,183,7.0,14.0,46,0.00,,,0.00,meteohub,2013-07-30 18:29:00,
2013-07-30 13:34:00,93.6,69.1,29.92,SSW,210,1.0,14.0,45,0.00,,,0.00,meteohub,2013-07-30 18:34:00,
2013-07-30 13:39:00,93.6,69.6,29.91,SW,217,2.0,14.0,46,0.00,,,0.00,meteohub,2013-07-30 18:39:00,
2013-07-30 13:44:00,93.7,69.3,29.91,WNW,283,2.0,14.0,45,0.00,,,0.00,meteohub,2013-07-30 18:44:00,
2013-07-30 13:49:00,93.9,68.7,29.91,SSW,200,2.0,14.0,44,0.00,,,0.00,meteohub,2013-07-30 18:49:00,
2013-07-30 13:50:00,93.9,69.3,29.91,SSE,154,7.0,14.0,45,0.00,,,0.00,meteohub,2013-07-30 18:50:00,
2013-07-30 13:55:00,94.1,68.9,29.91,SW,228,2.0,14.0,44,0.00,,,0.00,meteohub,2013-07-30 18:55:00,
2013-07-30 14:00:00,93.9,69.3,29.91,SW,216,1.0,14.0,45,0.00,,,0.00,meteohub,2013-07-30 19:00:00,
2013-07-30 14:05:00,94.3,69.1,29.90,SSE,157,11.0,14.0,44,0.00,,,0.00,meteohub,2013-07-30 19:05:00,
2013-07-30 14:10:00,94.6,69.3,29.90,SSW,198,2.0,14.0,44,0.00,,,0.00,meteohub,2013-07-30 19:10:00,
2013-07-30 14:15:00,95.2,69.1,29.90,South,179,7.0,15.0,43,0.00,,,0.00,meteohub,2013-07-30 19:15:00,
2013-07-30 14:20:00,95.4,69.3,29.89,WSW,240,7.0,15.0,43,0.00,,,0.00,meteohub,2013-07-30 19:20:00,
2013-07-30 14:25:00,95.5,69.4,29.89,SSE,167,8.0,15.0,43,0.00,,,0.00,meteohub,2013-07-30 19:25:00,
2013-07-30 14:30:00,95.7,68.9,29.89,SSW,209,2.0,11.0,42,0.00,,,0.00,meteohub,2013-07-30 19:30:00,
2013-07-30 14:35:00,96.1,69.3,29.89,SSW,198,1.0,11.0,42,0.00,,,0.00,meteohub,2013-07-30 19:35:00,
2013-07-30 14:40:00,96.4,68.9,29.89,South,187,0.0,11.0,41,0.00,,,0.00,meteohub,2013-07-30 19:40:00,
2013-07-30 14:45:00,96.4,68.9,29.89,WSW,252,0.0,12.0,41,0.00,,,0.00,meteohub,2013-07-30 19:45:00,
2013-07-30 14:50:00,96.6,69.1,29.89,South,176,2.0,12.0,41,0.00,,,0.00,meteohub,2013-07-30 19:50:00,
2013-07-30 14:55:00,97.0,69.4,29.88,South,179,1.0,12.0,41,0.00,,,0.00,meteohub,2013-07-30 19:55:00,
2013-07-30 15:00:00,97.2,68.7,29.88,SW,233,1.0,12.0,40,0.00,,,0.00,meteohub,2013-07-30 20:00:00,
2013-07-30 15:05:00,97.2,69.4,29.88,ESE,114,2.0,12.0,41,0.00,,,0.00,meteohub,2013-07-30 20:05:00,
2013-07-30 15:10:00,97.3,68.9,29.88,SSW,213,1.0,12.0,40,0.00,,,0.00,meteohub,2013-07-30 20:10:00,
2013-07-30 15:15:00,97.3,68.9,29.88,SSW,207,0.0,13.0,40,0.00,,,0.00,meteohub,2013-07-30 20:15:00,
2013-07-30 15:20:00,97.3,69.6,29.88,SSW,208,4.0,13.0,41,0.00,,,0.00,meteohub,2013-07-30 20:20:00,
2013-07-30 15:25:00,97.9,68.7,29.87,SW,226,1.0,13.0,39,0.00,,,0.00,meteohub,2013-07-30 20:25:00,
2013-07-30 15:30:00,98.2,69.1,29.87,SE,140,1.0,9.0,39,0.00,,,0.00,meteohub,2013-07-30 20:30:00,
2013-07-30 15:35:00,98.2,68.2,29.87,SE,135,1.0,9.0,38,0.00,,,0.00,meteohub,2013-07-30 20:35:00,
2013-07-30 15:40:00,98.4,69.3,29.87,South,188,0.0,9.0,39,0.00,,,0.00,meteohub,2013-07-30 20:40:00,
2013-07-30 15:45:00,98.8,68.7,29.86,WSW,238,1.0,14.0,38,0.00,,,0.00,meteohub,2013-07-30 20:45:00,
2013-07-30 15:50:00,99.1,69.1,29.86,SE,143,2.0,14.0,38,0.00,,,0.00,meteohub,2013-07-30 20:50:00,
2013-07-30 15:55:00,99.1,69.1,29.86,SSW,200,0.0,14.0,38,0.00,,,0.00,meteohub,2013-07-30 20:55:00,
2013-07-30 16:00:00,99.3,68.4,29.86,South,176,1.0,9.0,37,0.00,,,0.00,meteohub,2013-07-30 21:00:00,
2013-07-30 16:05:00,99.3,68.4,29.86,SSW,210,1.0,9.0,37,0.00,,,0.00,meteohub,2013-07-30 21:05:00,
2013-07-30 16:10:00,99.5,68.5,29.86,SSW,202,1.0,9.0,37,0.00,,,0.00,meteohub,2013-07-30 21:10:00,
2013-07-30 16:15:00,99.7,68.0,29.86,South,173,0.0,11.0,36,0.00,,,0.00,meteohub,2013-07-30 21:15:00,
2013-07-30 16:20:00,100.0,68.4,29.86,SE,146,6.0,11.0,36,0.00,,,0.00,meteohub,2013-07-30 21:20:00,
2013-07-30 16:25:00,100.0,68.4,29.85,SSE,147,8.0,11.0,36,0.00,,,0.00,meteohub,2013-07-30 21:25:00,
2013-07-30 16:30:00,99.7,68.7,29.85,WSW,240,2.0,9.0,37,0.00,,,0.00,meteohub,2013-07-30 21:30:00,
2013-07-30 16:36:00,99.7,68.0,29.85,South,185,0.0,9.0,36,0.00,,,0.00,meteohub,2013-07-30 21:36:00,
2013-07-30 16:41:00,99.7,68.0,29.85,SW,215,2.0,9.0,36,0.00,,,0.00,meteohub,2013-07-30 21:41:00,
2013-07-30 16:46:00,99.7,68.0,29.85,SW,221,2.0,9.0,36,0.00,,,0.00,meteohub,2013-07-30 21:46:00,
2013-07-30 16:51:00,99.9,67.3,29.85,WSW,248,0.0,9.0,35,0.00,,,0.00,meteohub,2013-07-30 21:51:00,
2013-07-30 16:56:00,99.9,68.2,29.85,SE,138,1.0,9.0,36,0.00,,,0.00,meteohub,2013-07-30 21:56:00,
2013-07-30 17:01:00,99.9,68.2,29.85,SSW,209,1.0,7.0,36,0.00,,,0.00,meteohub,2013-07-30 22:01:00,
2013-07-30 17:06:00,99.9,68.2,29.85,South,178,0.0,7.0,36,0.00,,,0.00,meteohub,2013-07-30 22:06:00,
2013-07-30 17:11:00,100.0,68.4,29.85,SSE,155,0.0,7.0,36,0.00,,,0.00,meteohub,2013-07-30 22:11:00,
2013-07-30 17:16:00,99.9,68.2,29.85,SSW,194,1.0,9.0,36,0.00,,,0.00,meteohub,2013-07-30 22:16:00,
2013-07-30 17:21:00,99.7,68.0,29.85,South,176,2.0,9.0,36,0.00,,,0.00,meteohub,2013-07-30 22:21:00,
2013-07-30 17:26:00,99.7,68.0,29.85,SSE,150,0.0,9.0,36,0.00,,,0.00,meteohub,2013-07-30 22:26:00,
2013-07-30 17:31:00,99.7,68.0,29.85,SE,136,0.0,7.0,36,0.00,,,0.00,meteohub,2013-07-30 22:31:00,
2013-07-30 17:36:00,99.5,67.8,29.85,SSE,148,4.0,7.0,36,0.00,,,0.00,meteohub,2013-07-30 22:36:00,
2013-07-30 17:41:00,99.0,68.2,29.84,SSE,147,1.0,9.0,37,0.00,,,0.00,meteohub,2013-07-30 22:41:00,
2013-07-30 17:46:00,99.0,68.2,29.84,South,182,0.0,9.0,37,0.00,,,0.00,meteohub,2013-07-30 22:46:00,
2013-07-30 17:52:00,99.1,67.5,29.84,South,178,0.0,9.0,36,0.00,,,0.00,meteohub,2013-07-30 22:52:00,
2013-07-30 17:57:00,99.3,67.6,29.84,ESE,121,0.0,9.0,36,0.00,,,0.00,meteohub,2013-07-30 22:57:00,
2013-07-30 18:02:00,99.7,68.7,29.85,SE,125,6.0,7.0,37,0.00,,,0.00,meteohub,2013-07-30 23:02:00,
2013-07-30 18:07:00,99.3,67.6,29.85,SE,126,4.0,7.0,36,0.00,,,0.00,meteohub,2013-07-30 23:07:00,
2013-07-30 18:12:00,98.8,68.7,29.84,SSE,166,0.0,7.0,38,0.00,,,0.00,meteohub,2013-07-30 23:12:00,
2013-07-30 18:17:00,98.4,67.6,29.84,ESE,121,0.0,12.0,37,0.00,,,0.00,meteohub,2013-07-30 23:17:00,
2013-07-30 18:22:00,98.2,68.2,29.84,SSE,150,4.0,12.0,38,0.00,,,0.00,meteohub,2013-07-30 23:22:00,
2013-07-30 18:27:00,98.2,68.2,29.84,SE,142,5.0,12.0,38,0.00,,,0.00,meteohub,2013-07-30 23:27:00,
2013-07-30 18:32:00,98.1,68.2,29.84,ESE,122,5.0,12.0,38,0.00,,,0.00,meteohub,2013-07-30 23:32:00,
2013-07-30 18:37:00,97.9,68.0,29.84,SE,140,4.0,12.0,38,0.00,,,0.00,meteohub,2013-07-30 23:37:00,
2013-07-30 18:42:00,97.7,67.8,29.84,SE,144,5.0,9.0,38,0.00,,,0.00,meteohub,2013-07-30 23:42:00,
2013-07-30 18:47:00,97.5,68.4,29.84,SSE,162,1.0,9.0,39,0.00,,,0.00,meteohub,2013-07-30 23:47:00,
2013-07-30 18:52:00,97.3,68.2,29.84,SSE,150,5.0,9.0,39,0.00,,,0.00,meteohub,2013-07-30 23:52:00,
2013-07-30 18:57:00,97.3,68.2,29.84,ESE,119,0.0,9.0,39,0.00,,,0.00,meteohub,2013-07-30 23:57:00,
2013-07-30 19:02:00,97.2,68.0,29.83,SE,131,6.0,9.0,39,0.00,,,0.00,meteohub,2013-07-31 00:02:00,
2013-07-30 19:07:00,97.0,67.8,29.84,ESE,121,0.0,9.0,39,0.00,,,0.00,meteohub,2013-07-31 00:07:00,
2013-07-30 19:12:00,97.0,68.7,29.84,ESE,123,5.0,9.0,40,0.00,,,0.00,meteohub,2013-07-31 00:12:00,
2013-07-30 19:17:00,97.0,68.7,29.84,ESE,114,0.0,9.0,40,0.00,,,0.00,meteohub,2013-07-31 00:17:00,
2013-07-30 19:22:00,96.8,68.5,29.84,ESE,116,0.0,8.0,40,0.00,,,0.00,meteohub,2013-07-31 00:22:00,
2013-07-30 19:28:00,97.0,67.8,29.84,SE,138,6.0,8.0,39,0.00,,,0.00,meteohub,2013-07-31 00:28:00,
2013-07-30 19:33:00,96.6,68.4,29.84,ESE,123,0.0,11.0,40,0.00,,,0.00,meteohub,2013-07-31 00:33:00,
2013-07-30 19:38:00,96.4,68.2,29.84,SE,124,0.0,11.0,40,0.00,,,0.00,meteohub,2013-07-31 00:38:00,
2013-07-30 19:43:00,96.3,68.0,29.84,ESE,117,4.0,11.0,40,0.00,,,0.00,meteohub,2013-07-31 00:43:00,
2013-07-30 19:48:00,95.7,67.5,29.85,ESE,119,0.0,11.0,40,0.00,,,0.00,meteohub,2013-07-31 00:48:00,
2013-07-30 19:53:00,95.5,68.0,29.85,SE,135,0.0,8.0,41,0.00,,,0.00,meteohub,2013-07-31 00:53:00,
2013-07-30 19:58:00,95.4,68.0,29.85,ESE,111,4.0,8.0,41,0.00,,,0.00,meteohub,2013-07-31 00:58:00,
2013-07-30 20:03:00,95.2,68.5,29.85,SE,127,0.0,7.0,42,0.00,,,0.00,meteohub,2013-07-31 01:03:00,
2013-07-30 20:08:00,94.8,68.2,29.85,SE,141,1.0,7.0,42,0.00,,,0.00,meteohub,2013-07-31 01:08:00,
2013-07-30 20:13:00,94.5,68.5,29.85,ESE,122,0.0,7.0,43,0.00,,,0.00,meteohub,2013-07-31 01:13:00,
2013-07-30 20:18:00,94.3,67.6,29.85,SE,124,0.0,5.0,42,0.00,,,0.00,meteohub,2013-07-31 01:18:00,
2013-07-30 20:23:00,93.9,68.0,29.85,ESE,113,0.0,5.0,43,0.00,,,0.00,meteohub,2013-07-31 01:23:00,
2013-07-30 20:28:00,93.6,67.6,29.85,SE,130,0.0,5.0,43,0.00,,,0.00,meteohub,2013-07-31 01:28:00,
2013-07-30 20:33:00,93.4,67.5,29.85,SE,126,0.0,6.0,43,0.00,,,0.00,meteohub,2013-07-31 01:33:00,
2013-07-30 20:38:00,93.0,67.3,29.85,ESE,122,0.0,6.0,43,0.00,,,0.00,meteohub,2013-07-31 01:38:00,
2013-07-30 20:43:00,92.8,67.6,29.85,ESE,122,0.0,6.0,44,0.00,,,0.00,meteohub,2013-07-31 01:43:00,
2013-07-30 20:48:00,92.5,67.5,29.86,ESE,122,0.0,6.0,44,0.00,,,0.00,meteohub,2013-07-31 01:48:00,
2013-07-30 20:53:00,92.1,67.6,29.86,ESE,122,0.0,0.0,45,0.00,,,0.00,meteohub,2013-07-31 01:53:00,
2013-07-30 20:58:00,91.9,67.6,29.86,ESE,122,0.0,0.0,45,0.00,,,0.00,meteohub,2013-07-31 01:58:00,
2013-07-30 21:04:00,91.6,67.3,29.86,ESE,122,0.0,0.0,45,0.00,,,0.00,meteohub,2013-07-31 02:04:00,
2013-07-30 21:09:00,91.2,67.5,29.86,ESE,122,0.0,0.0,46,0.00,,,0.00,meteohub,2013-07-31 02:09:00,
2013-07-30 21:14:00,91.0,67.5,29.87,ESE,122,0.0,0.0,46,0.00,,,0.00,meteohub,2013-07-31 02:14:00,
2013-07-30 21:19:00,90.7,67.6,29.86,ESE,122,0.0,0.0,47,0.00,,,0.00,meteohub,2013-07-31 02:19:00,
2013-07-30 21:24:00,90.3,67.3,29.86,ESE,122,0.0,0.0,47,0.00,,,0.00,meteohub,2013-07-31 02:24:00,
2013-07-30 21:29:00,90.1,67.8,29.87,ESE,122,0.0,0.0,48,0.00,,,0.00,meteohub,2013-07-31 02:29:00,
2013-07-30 21:34:00,89.8,67.5,29.87,ESE,122,0.0,0.0,48,0.00,,,0.00,meteohub,2013-07-31 02:34:00,
2013-07-30 21:39:00,89.4,67.1,29.87,ESE,122,0.0,0.0,48,0.00,,,0.00,meteohub,2013-07-31 02:39:00,
2013-07-30 21:44:00,89.2,66.9,29.88,ESE,122,0.0,0.0,48,0.00,,,0.00,meteohub,2013-07-31 02:44:00,
2013-07-30 21:49:00,89.1,67.5,29.88,ESE,122,0.0,0.0,49,0.00,,,0.00,meteohub,2013-07-31 02:49:00,
2013-07-30 21:54:00,88.9,67.3,29.88,ESE,122,0.0,0.0,49,0.00,,,0.00,meteohub,2013-07-31 02:54:00,
2013-07-30 21:59:00,88.9,67.3,29.88,ESE,122,0.0,0.0,49,0.00,,,0.00,meteohub,2013-07-31 02:59:00,
2013-07-30 22:04:00,88.5,67.5,29.89,ESE,122,0.0,0.0,50,0.00,,,0.00,meteohub,2013-07-31 03:04:00,
2013-07-30 22:09:00,88.3,67.3,29.89,ESE,122,0.0,0.0,50,0.00,,,0.00,meteohub,2013-07-31 03:09:00,
2013-07-30 22:14:00,88.3,67.3,29.89,ESE,122,0.0,0.0,50,0.00,,,0.00,meteohub,2013-07-31 03:14:00,
2013-07-30 22:19:00,88.2,67.8,29.89,ESE,122,0.0,0.0,51,0.00,,,0.00,meteohub,2013-07-31 03:19:00,
2013-07-30 22:24:00,88.0,67.6,29.89,ESE,122,0.0,0.0,51,0.00,,,0.00,meteohub,2013-07-31 03:24:00,
2013-07-30 22:29:00,88.0,67.6,29.89,ESE,122,0.0,0.0,51,0.00,,,0.00,meteohub,2013-07-31 03:29:00,
2013-07-30 22:34:00,87.6,67.3,29.89,ESE,122,0.0,0.0,51,0.00,,,0.00,meteohub,2013-07-31 03:34:00,
2013-07-30 22:39:00,87.6,67.3,29.89,ESE,122,0.0,0.0,51,0.00,,,0.00,meteohub,2013-07-31 03:39:00,
2013-07-30 22:44:00,87.4,67.6,29.89,ESE,122,0.0,0.0,52,0.00,,,0.00,meteohub,2013-07-31 03:44:00,
2013-07-30 22:49:00,87.3,66.9,29.89,ESE,122,0.0,0.0,51,0.00,,,0.00,meteohub,2013-07-31 03:49:00,
2013-07-30 22:54:00,87.3,66.9,29.90,ESE,122,0.0,0.0,51,0.00,,,0.00,meteohub,2013-07-31 03:54:00,
2013-07-30 22:59:00,87.3,66.4,29.89,ESE,122,0.0,0.0,50,0.00,,,0.00,meteohub,2013-07-31 03:59:00,
2013-07-30 23:01:00,87.3,66.9,29.89,ESE,122,0.0,1.0,51,0.00,,,0.00,meteohub,2013-07-31 04:01:00,
2013-07-30 23:02:00,87.3,66.9,29.89,ESE,122,0.0,1.0,51,0.00,,,0.00,meteohub,2013-07-31 04:02:00,
2013-07-30 23:07:00,87.3,66.9,29.90,ESE,122,0.0,1.0,51,0.00,,,0.00,meteohub,2013-07-31 04:07:00,
2013-07-30 23:12:00,87.1,67.3,29.90,ESE,122,0.0,1.0,52,0.00,,,0.00,meteohub,2013-07-31 04:12:00,
2013-07-30 23:17:00,86.7,67.5,29.91,ESE,122,0.0,1.0,53,0.00,,,0.00,meteohub,2013-07-31 04:17:00,
2013-07-30 23:22:00,86.5,68.0,29.90,ESE,122,0.0,0.0,54,0.00,,,0.00,meteohub,2013-07-31 04:22:00,
2013-07-30 23:27:00,86.2,68.2,29.90,ESE,122,0.0,0.0,55,0.00,,,0.00,meteohub,2013-07-31 04:27:00,
2013-07-30 23:32:00,85.6,68.2,29.90,ESE,122,0.0,0.0,56,0.00,,,0.00,meteohub,2013-07-31 04:32:00,
2013-07-30 23:37:00,85.5,66.9,29.90,ESE,122,0.0,0.0,54,0.00,,,0.00,meteohub,2013-07-31 04:37:00,
2013-07-30 23:42:00,85.3,66.7,29.90,ESE,122,0.0,0.0,54,0.00,,,0.00,meteohub,2013-07-31 04:42:00,
2013-07-30 23:47:00,85.3,66.2,29.90,ESE,122,0.0,0.0,53,0.00,,,0.00,meteohub,2013-07-31 04:47:00,
2013-07-30 23:52:00,85.3,66.7,29.90,ESE,122,0.0,0.0,54,0.00,,,0.00,meteohub,2013-07-31 04:52:00,
2013-07-30 23:57:00,85.3,66.7,29.90,ESE,122,0.0,0.0,54,0.00,,,0.00,meteohub,2013-07-31 04:57:00,